• In Portugal
  • List of Countries
  • For 7 days
  • Water Temperature
  • Satellite Maps
  • Weather Map
  • Weather Widgets
  • user-avatar
    Login

    Hourly Weather Mendoza

    Today, 23 May, Wednesday

    Time Temperature Precipitation Wind Pressure Humidity
    00:00 +13°C° 0 mm 1 mps 699 mmHg 67%
    01:00 +12°C° 0 mm 1 mps 699 mmHg 69%
    02:00 +12°C° 0 mm 1 mps 699 mmHg 70%
    03:00 +12°C° 0 mm 1 mps 699 mmHg 71%
    04:00 +11°C° 0 mm 1 mps 699 mmHg 72%
    05:00 +11°C° 0 mm 1 mps 700 mmHg 71%
    06:00 +11°C° 0 mm 1 mps 700 mmHg 70%
    07:00 +11°C° 0 mm 1 mps 700 mmHg 69%
    08:00 +13°C° 0 mm 1 mps 700 mmHg 63%
    09:00 +15°C° 0 mm 1 mps 701 mmHg 57%
    10:00 +18°C° 0 mm 1 mps 701 mmHg 51%
    11:00 +19°C° 0 mm 1 mps 701 mmHg 48%
    12:00 +18°C° 0 mm 2 mps 701 mmHg 45%
    13:00 +19°C° 0 mm 2 mps 700 mmHg 43%
    14:00 +19°C° 0 mm 2 mps 701 mmHg 44%
    15:00 +19°C° 0 mm 2 mps 701 mmHg 45%
    16:00 +19°C° 0 mm 2 mps 701 mmHg 47%
    17:00 +18°C° 0 mm 2 mps 701 mmHg 51%
    18:00 +18°C° 0 mm 1 mps 701 mmHg 56%
    19:00 +15°C° 0 mm 1 mps 702 mmHg 61%
    20:00 +15°C° 0 mm 1 mps 702 mmHg 63%
    21:00 +15°C° 0 mm 1 mps 702 mmHg 64%
    22:00 +14°C° 0 mm 1 mps 702 mmHg 66%
    23:00 +14°C° 0 mm 1 mps 702 mmHg 66%

    Tomorrow, 24 May, Thursday

    Time Temperature Precipitation Wind Pressure Humidity
    00:00 +13°C° 0 mm 1 mps 701 mmHg 67%
    01:00 +13°C° 0 mm 2 mps 701 mmHg 68%
    02:00 +13°C° 0 mm 2 mps 701 mmHg 69%
    03:00 +12°C° 0 mm 2 mps 701 mmHg 70%
    04:00 +12°C° 0 mm 2 mps 700 mmHg 71%
    05:00 +12°C° 0 mm 2 mps 701 mmHg 70%
    06:00 +12°C° 0 mm 2 mps 701 mmHg 69%
    07:00 +12°C° 0 mm 2 mps 701 mmHg 69%
    08:00 +14°C° 0 mm 2 mps 701 mmHg 62%
    09:00 +16°C° 0 mm 2 mps 701 mmHg 55%
    10:00 +18°C° 0 mm 3 mps 702 mmHg 48%
    11:00 +19°C° 0 mm 3 mps 701 mmHg 45%
    12:00 +20°C° 0 mm 3 mps 701 mmHg 42%
    13:00 +21°C° 0 mm 3 mps 700 mmHg 38%
    14:00 +20°C° 0 mm 3 mps 700 mmHg 40%
    15:00 +20°C° 0 mm 3 mps 700 mmHg 42%
    16:00 +20°C° 0 mm 2 mps 699 mmHg 44%
    17:00 +19°C° 0 mm 2 mps 700 mmHg 48%
    18:00 +17°C° 0 mm 2 mps 700 mmHg 53%
    19:00 +16°C° 0 mm 2 mps 700 mmHg 57%
    20:00 +16°C° 0 mm 2 mps 700 mmHg 58%
    21:00 +15°C° 0 mm 2 mps 700 mmHg 58%
    22:00 +15°C° 0 mm 2 mps 700 mmHg 58%
    23:00 +14°C° 0 mm 2 mps 700 mmHg 59%

    Day after tomorrow, 25 May, Friday

    Time Temperature Precipitation Wind Pressure Humidity
    00:00 +14°C° 0 mm 1 mps 700 mmHg 60%
    01:00 +13°C° 0 mm 1 mps 699 mmHg 60%
    02:00 +13°C° 0 mm 1 mps 699 mmHg 61%
    03:00 +12°C° 0 mm 1 mps 699 mmHg 62%
    04:00 +12°C° 0 mm 1 mps 699 mmHg 62%
    05:00 +12°C° 0 mm 1 mps 699 mmHg 62%
    06:00 +12°C° 0 mm 2 mps 699 mmHg 61%
    07:00 +12°C° 0 mm 2 mps 699 mmHg 60%
    08:00 +14°C° 0 mm 2 mps 699 mmHg 54%
    09:00 +16°C° 0 mm 2 mps 700 mmHg 48%
    10:00 +19°C° 0 mm 2 mps 700 mmHg 42%
    11:00 +20°C° 0 mm 3 mps 699 mmHg 39%
    12:00 +21°C° 0 mm 3 mps 699 mmHg 35%
    13:00 +22°C° 0 mm 4 mps 698 mmHg 32%
    14:00 +21°C° 0 mm 3 mps 698 mmHg 33%
    15:00 +21°C° 0 mm 3 mps 697 mmHg 34%
    16:00 +21°C° 0 mm 3 mps 697 mmHg 35%
    17:00 +19°C° 0 mm 3 mps 697 mmHg 37%
    18:00 +18°C° 0 mm 3 mps 697 mmHg 39%
    19:00 +17°C° 0 mm 2 mps 697 mmHg 42%
    20:00 +16°C° 0 mm 2 mps 697 mmHg 41%
    21:00 +16°C° 0 mm 3 mps 697 mmHg 41%
    22:00 +14°C° 0 mm 3 mps 697 mmHg 41%
    23:00 +14°C° 0 mm 3 mps 696 mmHg 42%

    26 May, Saturday

    Time Temperature Precipitation Wind Pressure Humidity
    00:00 +13°C° 0 mm 3 mps 696 mmHg 42%
    01:00 +13°C° 0 mm 3 mps 696 mmHg 43%
    02:00 +13°C° 0 mm 3 mps 695 mmHg 45%
    03:00 +12°C° 0 mm 3 mps 695 mmHg 47%
    04:00 +12°C° 0 mm 3 mps 695 mmHg 49%
    05:00 +12°C° 0 mm 3 mps 696 mmHg 50%
    06:00 +11°C° 0 mm 3 mps 696 mmHg 51%
    07:00 +11°C° 0 mm 3 mps 696 mmHg 52%
    08:00 +15°C° 0 mm 2 mps 697 mmHg 46%
    09:00 +17°C° 0 mm 2 mps 697 mmHg 41%
    10:00 +19°C° 0 mm 2 mps 697 mmHg 36%
    11:00 +20°C° 0 mm 2 mps 697 mmHg 33%
    12:00 +21°C° 0 mm 2 mps 697 mmHg 30%
    13:00 +23°C° 0 mm 2 mps 696 mmHg 27%
    14:00 +23°C° 0 mm 2 mps 696 mmHg 28%
    15:00 +21°C° 0 mm 2 mps 697 mmHg 29%
    16:00 +21°C° 0 mm 2 mps 697 mmHg 30%
    17:00 +20°C° 0 mm 3 mps 697 mmHg 34%
    18:00 +18°C° 0 mm 3 mps 698 mmHg 37%
    19:00 +17°C° 0 mm 4 mps 699 mmHg 41%
    20:00 +16°C° 0 mm 3 mps 699 mmHg 42%
    21:00 +16°C° 0 mm 3 mps 699 mmHg 43%
    22:00 +14°C° 0 mm 3 mps 699 mmHg 44%
    23:00 +13°C° 0 mm 3 mps 698 mmHg 45%

    27 May, Sunday

    Time Temperature Precipitation Wind Pressure Humidity
    00:00 +13°C° 0 mm 3 mps 698 mmHg 47%
    01:00 +13°C° 0 mm 2 mps 698 mmHg 49%
    02:00 +13°C° 0 mm 2 mps 698 mmHg 50%
    03:00 +13°C° 0 mm 2 mps 697 mmHg 50%
    04:00 +12°C° 0 mm 2 mps 697 mmHg 51%
    05:00 +12°C° 0 mm 2 mps 697 mmHg 51%
    06:00 +12°C° 0 mm 2 mps 698 mmHg 51%
    07:00 +12°C° 0 mm 2 mps 698 mmHg 51%
    08:00 +14°C° 0 mm 2 mps 698 mmHg 47%
    09:00 +16°C° 0 mm 2 mps 698 mmHg 43%
    10:00 +18°C° 0 mm 2 mps 698 mmHg 39%
    11:00 +19°C° 0 mm 3 mps 697 mmHg 37%
    12:00 +20°C° 0 mm 3 mps 696 mmHg 36%
    13:00 +21°C° 0 mm 4 mps 695 mmHg 34%
    14:00 +21°C° 0 mm 4 mps 695 mmHg 35%
    15:00 +21°C° 0 mm 4 mps 694 mmHg 35%
    16:00 +21°C° 0 mm 4 mps 694 mmHg 36%
    17:00 +19°C° 0 mm 3 mps 694 mmHg 38%
    18:00 +18°C° 0 mm 3 mps 694 mmHg 40%
    19:00 +17°C° 0 mm 2 mps 694 mmHg 42%
    20:00 +17°C° 0 mm 2 mps 694 mmHg 41%
    21:00 +16°C° 0 mm 3 mps 693 mmHg 41%
    22:00 +16°C° 0 mm 3 mps 693 mmHg 41%
    23:00 +16°C° 0 mm 3 mps 693 mmHg 42%

    28 May, Monday

    Time Temperature Precipitation Wind Pressure Humidity
    00:00 +14°C° 0 mm 3 mps 692 mmHg 43%
    01:00 +14°C° 0 mm 3 mps 691 mmHg 43%
    02:00 +14°C° 0 mm 3 mps 691 mmHg 45%
    03:00 +13°C° 0 mm 3 mps 691 mmHg 46%
    04:00 +13°C° 0 mm 3 mps 690 mmHg 48%
    05:00 +13°C° 0 mm 3 mps 690 mmHg 47%
    06:00 +13°C° 0 mm 3 mps 690 mmHg 46%
    07:00 +13°C° 0 mm 3 mps 690 mmHg 45%
    08:00 +17°C° 0 mm 4 mps 690 mmHg 36%
    09:00 +20°C° 0 mm 5 mps 691 mmHg 28%
    10:00 +23°C° 0 mm 6 mps 691 mmHg 20%
    11:00 +24°C° 0 mm 7 mps 691 mmHg 18%
    12:00 +26°C° 0 mm 7 mps 690 mmHg 16%
    13:00 +28°C° 0 mm 7 mps 690 mmHg 14%
    14:00 +27°C° 0 mm 7 mps 690 mmHg 16%
    15:00 +26°C° 0 mm 6 mps 691 mmHg 18%
    16:00 +24°C° 0 mm 6 mps 691 mmHg 20%
    17:00 +22°C° 0 mm 5 mps 692 mmHg 24%
    18:00 +21°C° 0 mm 5 mps 693 mmHg 27%
    19:00 +19°C° 0 mm 5 mps 694 mmHg 31%
    20:00 +19°C° 0 mm 5 mps 695 mmHg 35%
    21:00 +19°C° 0 mm 6 mps 695 mmHg 39%
    22:00 +17°C° 0 mm 6 mps 696 mmHg 43%
    23:00 +16°C° 0 mm 6 mps 696 mmHg 44%
    Show more